Hourly Data Report for June 13, 2021

MANIWAKI AIRPORT
QUEBEC
Current Station Operator: ECCC - MSC

46°16'29.000" N
75°59'31.000" W
199.70 m
7034482
71721
WMJ

Download Data

Hourly Data (June 2021)
Hourly Data Report for June 13, 2021
TIME
LST
Temp Definition
°C
Dew Point Definition
°C
Rel Hum Definition
%
Precip. Amount Definition
mm

Wind Dir Definition
10's deg

Wind Spd Definition
km/h
Visibility Definition
km
Stn Press Definition
kPa
Hmdx Definition


Wind Chill Definition


Weather Definition


00:00 9.8 7.8 88 0.0   0   98.74     LegendNANA
01:00 9.6 7.8 89 0.0   0   98.74     LegendNANA
02:00 8.5 7.3 92 0.0   0   98.73     LegendNANA
03:00 8.0 7.0 93 0.0   0   98.73     LegendNANA
04:00 7.1 6.6 97 0.0 2 4   98.73     LegendNANA
05:00 8.4 7.5 94 0.0 0 1   98.75     LegendNANA
06:00 12.2 10.4 89 0.0 0 1   98.78     LegendNANA
07:00 16.4 9.5 64 0.0 5 3   98.78     LegendNANA
08:00 18.1 10.5 61 0.0 28 8   98.77     LegendNANA
09:00 19.6 8.4 48 0.0 4 3   98.75     LegendNANA
10:00 22.4 6.5 36 0.0 33 3   98.74     LegendNANA
11:00 24.1 4.1 27 0.0 30 8   98.72     LegendNANA
12:00 24.8 4.7 27 0.0 24 8   98.68     LegendNANA
13:00 24.8 5.1 28 0.0 19 6   98.61     LegendNANA
14:00 25.3 6.2 29 0.0 10 7   98.58 25   LegendNANA
15:00 25.6 5.8 28 0.0 36 8   98.51 25   LegendNANA
16:00 25.7 6.1 29 0.0 6 3   98.45 25   LegendNANA
17:00 25.9 6.8 30 0.0 5 6   98.40 26   LegendNANA
18:00 24.9 8.4 35 0.0 5 4   98.38 25   LegendNANA
19:00 22.6 10.6 47 0.0 6 3   98.39     LegendNANA
20:00 21.6 8.7 43 0.0 7 7   98.36     LegendNANA
21:00 20.3 11.6 57 0.0 15 7   98.39     LegendNANA
22:00 19.3 13.9 71 0.0 18 9   98.39     LegendNANA
23:00 17.9 14.2 79 0.0 14 2   98.35     LegendNANA

Notes on Data Quality.

Legend

  • E = Estimated
  • M = Missing
  • NA = Not Available*
  • [empty] = Indicates an unobserved value
Date modified: